#timestamp,LO_Frequency,Hit,StdDev 
1582106415.6,286046999.5,N
1582106435.4,286046999.2,N
1582106455.2,286046999.2,N
1582106475.1,286046999.5,N
1582106476.0,286046999.5,N
1582106495.8,286046996.5,N
1582106515.7,286046998.8,N
1582106535.5,286046999.6,N
1582106555.3,286046998.2,N
1582106575.2,286046998.7,N
1582106595.0,286046998.4,N
1582106595.9,286046998.4,N
1582106615.7,286046999.4,N
1582106635.6,286046997.9,N
1582106655.4,286046999.4,N
1582106675.3,286046998.8,N
1582106695.1,286046997.1,N
1582106696.0,286046997.1,N
1582106715.8,286046999.6,N
1582106735.7,286046996.6,N
1582106755.5,286046998.3,N
1582106775.4,286047000.8,N
1582106795.2,286046999.1,N
1582106815.0,286047000.0,N
1582106815.9,286047000.0,N
1582106835.8,286047002.2,N
1582106855.6,286046999.9,N
1582106875.4,286047000.6,N
1582106895.3,286047000.9,N
1582106915.1,286046999.8,N
1582106935.9,286047000.2,N
1582106955.7,286046999.7,N
1582106975.5,286046999.1,N
1582106995.4,286046996.8,N
1582107015.2,286046997.5,N
1582107035.1,286046996.9,N
1582107036.0,286046996.9,N
1582107055.8,286046999.2,N
1582107075.6,286046999.6,N
1582107095.5,286046998.8,N
1582107115.3,286046996.5,N
1582107135.1,286046999.6,N
1582107155.9,286046999.0,N
1582107175.7,286046999.3,N
1582107195.6,286046999.1,N
1582107215.4,286046996.7,N
1582107235.2,286046999.1,N
1582107255.1,286046998.4,N
1582107256.0,286046998.4,N
1582107275.8,286047000.7,N
1582107295.7,286046998.2,N
1582107315.5,286046999.5,N
1582107335.3,286046996.5,N
1582107355.2,286046996.8,N
1582107375.0,286046998.6,N
1582107375.9,286046998.6,N
1582107395.8,286047000.7,N
1582107415.6,286046998.4,N
1582107435.4,286047000.4,N
1582107455.3,286047000.5,N
1582107475.1,286046998.2,N
1582107495.8,286046998.7,N
1582107515.7,286046998.6,N
1582107535.5,286047002.1,N
1582107555.4,286046998.7,N
1582107575.2,286047000.4,N
1582107595.0,286047000.1,N
1582107595.9,286047000.1,N
1582107615.8,286046998.7,N
1582107635.6,286046998.9,N
1582107655.5,286046998.7,N
1582107675.3,286047000.1,N
1582107695.1,286047001.9,N
1582107715.9,286047002.5,N
1582107735.7,286047000.6,N
1582107755.6,286046999.7,N
1582107775.4,286047000.9,N
1582107795.2,286046999.9,N
1582107815.1,286046999.9,N
1582107816.0,286046999.9,N
1582107835.8,286047000.6,N
1582107855.6,286047000.8,N
1582107875.5,286046998.3,N
1582107895.3,286046997.2,N
1582107915.2,286046997.2,N
1582107935.9,286046997.1,N
1582107955.7,286046999.6,N
1582107975.6,286046996.5,N
1582107995.4,286046996.6,N
1582108015.3,286046996.8,N
1582108035.1,286046999.3,N
1582108036.0,286046999.3,N
1582108055.8,286046998.6,N
1582108075.7,286047000.6,N
1582108095.5,286046999.0,N
1582108115.4,286046999.5,N
1582108135.2,286046998.7,N
1582108155.0,286047001.2,N
1582108155.9,286047001.2,N
1582108175.8,286046998.5,N
1582108195.6,286047001.1,N
1582108215.4,286046998.5,N
1582108235.3,286047000.5,N
1582108255.1,286047002.5,N
1582108275.9,286047002.3,N
1582108295.7,286046999.8,N
1582108315.5,286046998.8,N
1582108335.4,286046999.0,N
1582108355.2,286046999.9,N
1582108375.0,286047000.3,N
1582108376.0,286047000.3,N
1582108395.8,286046999.8,N
1582108415.6,286047002.3,N
1582108435.5,286047001.7,N
1582108455.3,286047002.8,N
1582108475.1,286047002.3,N
1582108495.9,286047000.0,N
1582108515.7,286047002.3,N
1582108535.6,286047002.6,N
1582108555.4,286047002.1,N
1582108575.2,286047000.2,N
1582108595.1,286047001.0,N
1582108596.0,286047001.0,N
1582108615.8,286047000.1,N
1582108635.7,286047000.3,N
1582108655.5,286047002.8,N
1582108675.3,286047001.4,N
1582108695.2,286047001.7,N
1582108715.0,286047002.3,N
1582108715.9,286047002.3,N
1582108735.7,286046999.8,N
1582108755.6,286046999.7,N
1582108775.4,286047000.5,N
1582108795.3,286046999.8,N
1582108815.1,286047000.4,N
1582108816.0,286047000.4,N
1582108835.8,286046998.5,N
1582108855.7,286047000.2,N
1582108875.5,286047000.6,N
1582108895.4,286046999.6,N
1582108915.2,286046998.9,N
1582108935.0,286046999.2,N
1582108935.9,286046999.2,N
1582108955.8,286046998.2,N
1582108975.6,286047000.5,N
1582108995.5,286046999.0,N
1582109015.3,286047000.9,N
1582109035.1,286047000.4,N
1582109055.9,286047000.5,N
1582109075.7,286047000.1,N
1582109095.5,286047002.7,N
1582109115.4,286046999.8,N
1582109135.2,286047002.3,N
1582109155.1,286046999.9,N
1582109156.0,286046999.9,N
1582109175.8,286046998.7,N
1582109195.6,286046998.2,N
1582109215.5,286047000.8,N
1582109235.3,286046999.1,N
1582109255.2,286046999.2,N
1582109275.9,286046999.3,N
1582109295.7,286046999.6,N
1582109315.6,286046997.3,N
1582109335.4,286046997.4,N
1582109355.2,286046999.0,N
1582109375.1,286047000.8,N
1582109376.0,286047000.8,N
1582109395.8,286047001.2,N
1582109415.7,286046998.8,N
1582109435.5,286046999.4,N
1582109455.3,286046999.5,N
1582109475.2,286046999.5,N
1582109495.0,286046999.3,N
1582109495.9,286046999.3,N
1582109515.8,286046999.4,N
1582109535.6,286046997.3,N
1582109555.4,286046995.8,Y
1582109575.3,286046993.3,P
1582109595.1,286046995.7,N
1582109615.9,286046993.5,N
1582109635.7,286046995.1,N
1582109655.5,286046996.3,N
1582109675.4,286046994.0,N
1582109695.2,286046993.8,Y
1582109715.1,286046998.7,P
1582109716.0,286046998.7,N
1582109735.8,286046998.5,N
1582109755.6,286046998.9,N
1582109775.5,286047000.8,N
1582109795.3,286046998.2,N
1582109815.1,286046998.6,N
1582109835.9,286046998.9,N
1582109855.7,286046999.6,N
1582109875.6,286046999.4,N
1582109895.4,286046996.6,N
1582109915.2,286046996.7,N
1582109935.1,286046998.8,N
1582109936.0,286046998.8,N
1582109955.8,286046999.6,N
1582109975.7,286046997.4,N
1582109995.5,286046996.2,Y
